| time (UTC) | temp F | wind direction | speed knots | gust knots | rain 1hr in | rain 24hr in | rain mn in | humidity % | barometer mb |
| 20260906190844 | 66 | 66 | 1.7 | 2.6 | 0.00 | 0.00 | 0.00 | 80 | 1021.2 |
| 20260906190343 | 66 | 66 | 1.7 | 2.6 | 0.00 | 0.00 | 0.00 | 79 | 1021.2 |
| 20260906185841 | 66 | 67 | 0.9 | 2.6 | 0.00 | 0.00 | 0.00 | 79 | 1021.3 |
| 20260906185338 | 66 | 67 | 1.7 | 2.6 | 0.00 | 0.00 | 0.00 | 78 | 1021.3 |
| 20260906184841 | 67 | 67 | 1.7 | 2.6 | 0.00 | 0.00 | 0.00 | 78 | 1021.3 |
| 20260906184338 | 67 | 83 | 1.7 | 2.6 | 0.00 | 0.00 | 0.00 | 77 | 1021.4 |
| 20260906184320 | 67 | 103 | 0.9 | 2.6 | 0.00 | 0.00 | 0.00 | 77 | 1021.4 |
| 20260906183340 | 68 | 103 | 0.9 | 1.7 | 0.00 | 0.00 | 0.00 | 76 | 1021.5 |
| 20260906182838 | 68 | 103 | 0.9 | 1.7 | 0.00 | 0.00 | 0.00 | 75 | 1021.4 |
| 20260906182338 | 68 | 103 | 0.9 | 1.7 | 0.00 | 0.00 | 0.00 | 74 | 1021.4 |
| 20260906181839 | 69 | 103 | 0.9 | 1.7 | 0.00 | 0.00 | 0.00 | 73 | 1021.3 |
| 20260906181335 | 69 | 103 | 0.9 | 1.7 | 0.00 | 0.00 | 0.00 | 72 | 1021.3 |
| 20260906180834 | 69 | 103 | 0.9 | 2.6 | 0.00 | 0.00 | 0.00 | 71 | 1021.3 |
| 20260906180338 | 70 | 102 | 0.9 | 2.6 | 0.00 | 0.00 | 0.00 | 71 | 1021.5 |
| 20260906175834 | 70 | 110 | 0.9 | 4.3 | 0.00 | 0.00 | 0.00 | 70 | 1021.5 |
| 20260906175336 | 70 | 125 | 0.9 | 4.3 | 0.00 | 0.00 | 0.00 | 69 | 1021.6 |
| 20260906174833 | 70 | 102 | 0.9 | 2.6 | 0.00 | 0.00 | 0.00 | 69 | 1021.6 |
| 20260906174332 | 71 | 86 | 0.9 | 2.6 | 0.00 | 0.00 | 0.00 | 68 | 1021.7 |
| 20260906174302 | 71 | 79 | 0.9 | 3.5 | 0.00 | 0.00 | 0.00 | 68 | 1021.8 |
| 20260906173746 | 71 | 116 | 0.9 | 2.6 | 0.00 | 0.00 | 0.00 | 68 | 1021.9 |
| 20260906173532 | 71 | 112 | 0.9 | 3.5 | 0.00 | 0.00 | 0.00 | 69 | 1021.9 |
| 20260906172330 | 71 | 101 | 0.9 | 2.6 | 0.00 | 0.00 | 0.00 | 68 | 1021.9 |
| 20260906171829 | 71 | 83 | 0.9 | 2.6 | 0.00 | 0.00 | 0.00 | 67 | 1021.9 |
| 20260906171819 | 72 | 76 | 1.7 | 3.5 | 0.00 | 0.00 | 0.00 | 66 | 1022.1 |
| 20260906171309 | 72 | 99 | 1.7 | 3.5 | 0.00 | 0.00 | 0.00 | 64 | 1022.1 |
| 20260906170330 | 73 | 77 | 1.7 | 4.3 | 0.00 | 0.00 | 0.00 | 63 | 1022.1 |
| 20260906165830 | 73 | 96 | 1.7 | 4.3 | 0.00 | 0.00 | 0.00 | 61 | 1022.2 |
| 20260906165813 | 73 | 106 | 1.7 | 4.3 | 0.00 | 0.00 | 0.00 | 60 | 1022.2 |
| 20260906164823 | 74 | 116 | 0.9 | 4.3 | 0.00 | 0.00 | 0.00 | 60 | 1022.3 |
| 20260906164320 | 74 | 156 | 1.7 | 5.2 | 0.00 | 0.00 | 0.00 | 59 | 1022.4 |
| 20260906163822 | 74 | 106 | 2.6 | 5.2 | 0.00 | 0.00 | 0.00 | 59 | 1022.5 |
| 20260906163320 | 74 | 121 | 2.6 | 6.1 | 0.00 | 0.00 | 0.00 | 59 | 1022.5 |
| 20260906162821 | 74 | 171 | 1.7 | 6.1 | 0.00 | 0.00 | 0.00 | 58 | 1022.6 |
| 20260906162321 | 74 | 134 | 1.7 | 5.2 | 0.00 | 0.00 | 0.00 | 59 | 1022.6 |
| 20260906161822 | 74 | 100 | 1.7 | 5.2 | 0.00 | 0.00 | 0.00 | 57 | 1022.6 |
| 20260906161320 | 74 | 104 | 1.7 | 5.2 | 0.00 | 0.00 | 0.00 | 59 | 1022.5 |
| 20260906160818 | 74 | 73 | 2.6 | 5.2 | 0.00 | 0.00 | 0.00 | 60 | 1022.6 |
| 20260906160316 | 74 | 98 | 1.7 | 4.3 | 0.00 | 0.00 | 0.00 | 58 | 1022.6 |
| 20260906155818 | 74 | 169 | 1.7 | 4.3 | 0.00 | 0.00 | 0.00 | 58 | 1022.7 |
| 20260906155320 | 74 | 129 | 1.7 | 5.2 | 0.00 | 0.00 | 0.00 | 58 | 1022.8 |
| 20260906154815 | 74 | 180 | 1.7 | 5.2 | 0.00 | 0.00 | 0.00 | 57 | 1022.8 |
| 20260906154317 | 74 | 168 | 1.7 | 6.1 | 0.00 | 0.00 | 0.00 | 58 | 1022.8 |
| 20260906153815 | 74 | 131 | 2.6 | 6.1 | 0.00 | 0.00 | 0.00 | 58 | 1022.7 |
| 20260906153314 | 74 | 128 | 2.6 | 7.0 | 0.00 | 0.00 | 0.00 | 58 | 1022.8 |
| 20260906152814 | 74 | 154 | 2.6 | 7.0 | 0.00 | 0.00 | 0.00 | 59 | 1022.8 |
| 20260906152316 | 74 | 204 | 3.5 | 7.8 | 0.00 | 0.00 | 0.00 | 59 | 1022.7 |
| 20260906151815 | 74 | 43 | 3.5 | 7.8 | 0.00 | 0.00 | 0.00 | 60 | 1022.8 |
| 20260906151314 | 74 | 49 | 2.6 | 7.0 | 0.00 | 0.00 | 0.00 | 58 | 1022.9 |
| 20260906151304 | 74 | 99 | 3.5 | 7.8 | 0.00 | 0.00 | 0.00 | 58 | 1023.0 |
| 20260906150312 | 73 | 77 | 3.5 | 7.8 | 0.00 | 0.00 | 0.00 | 58 | 1023.1 |
| 20260906145813 | 74 | 86 | 2.6 | 7.8 | 0.00 | 0.00 | 0.00 | 59 | 1023.1 |
| 20260906145314 | 74 | 89 | 2.6 | 7.0 | 0.00 | 0.00 | 0.00 | 60 | 1023.1 |
| 20260906145250 | 74 | 123 | 1.7 | 6.1 | 0.00 | 0.00 | 0.00 | 57 | 1023.3 |
| 20260906145019 | 74 | 60 | 2.6 | 7.0 | 0.00 | 0.00 | 0.00 | 57 | 1023.2 |
| 20260906143813 | 74 | 136 | 1.7 | 6.1 | 0.00 | 0.00 | 0.00 | 58 | 1023.3 |
| 20260906143312 | 74 | 151 | 2.6 | 7.0 | 0.00 | 0.00 | 0.00 | 56 | 1023.3 |
| 20260906142813 | 74 | 81 | 4.3 | 7.8 | 0.00 | 0.00 | 0.00 | 58 | 1023.4 |
| 20260906142310 | 74 | 124 | 3.5 | 7.8 | 0.00 | 0.00 | 0.00 | 56 | 1023.4 |
| 20260906141814 | 75 | 64 | 2.6 | 7.0 | 0.00 | 0.00 | 0.00 | 57 | 1023.4 |
| 20260906141314 | 75 | 162 | 2.6 | 6.1 | 0.00 | 0.00 | 0.00 | 59 | 1023.4 |
| 20260906141308 | 73 | 131 | 3.5 | 7.0 | 0.00 | 0.00 | 0.00 | 60 | 1023.5 |
| 20260906140311 | 73 | 67 | 2.6 | 7.0 | 0.00 | 0.00 | 0.00 | 60 | 1023.6 |
| 20260906135811 | 74 | 66 | 2.6 | 7.8 | 0.00 | 0.00 | 0.00 | 58 | 1023.6 |
| 20260906135753 | 74 | 100 | 2.6 | 7.8 | 0.00 | 0.00 | 0.00 | 58 | 1023.5 |
| 20260906134809 | 73 | 78 | 2.6 | 7.0 | 0.00 | 0.00 | 0.00 | 61 | 1023.7 |
| 20260906134754 | 73 | 123 | 3.5 | 8.7 | 0.00 | 0.00 | 0.00 | 58 | 1023.7 |
| 20260906133812 | 72 | 161 | 3.5 | 8.7 | 0.00 | 0.00 | 0.00 | 59 | 1023.6 |
| 20260906133310 | 72 | 81 | 2.6 | 7.0 | 0.00 | 0.00 | 0.00 | 59 | 1023.7 |
| 20260906133258 | 73 | 189 | 2.6 | 7.8 | 0.00 | 0.00 | 0.00 | 60 | 1023.9 |
| 20260906132749 | 73 | 89 | 3.5 | 7.8 | 0.00 | 0.00 | 0.00 | 58 | 1023.9 |
| 20260906132306 | 74 | 154 | 3.5 | 9.6 | 0.00 | 0.00 | 0.00 | 60 | 1024.0 |
| 20260906131308 | 74 | 102 | 4.3 | 9.6 | 0.00 | 0.00 | 0.00 | 59 | 1024.1 |
| 20260906130806 | 74 | 124 | 4.3 | 9.6 | 0.00 | 0.00 | 0.00 | 58 | 1024.1 |
| 20260906130306 | 73 | 126 | 2.6 | 7.0 | 0.00 | 0.00 | 0.00 | 59 | 1024.1 |
| 20260906125805 | 74 | 91 | 2.6 | 6.1 | 0.00 | 0.00 | 0.00 | 60 | 1024.2 |
| 20260906125752 | 73 | 133 | 2.6 | 8.7 | 0.00 | 0.00 | 0.00 | 59 | 1024.3 |
| 20260906125306 | 73 | 95 | 2.6 | 8.7 | 0.00 | 0.00 | 0.00 | 63 | 1024.3 |
| 20260906124304 | 72 | 125 | 2.6 | 7.0 | 0.00 | 0.00 | 0.00 | 60 | 1024.3 |
| 20260906123804 | 71 | 75 | 3.5 | 7.8 | 0.00 | 0.00 | 0.00 | 62 | 1024.3 |
| 20260906123306 | 71 | 83 | 3.5 | 7.8 | 0.00 | 0.00 | 0.00 | 61 | 1024.4 |
| 20260906122803 | 71 | 114 | 3.5 | 7.8 | 0.00 | 0.00 | 0.00 | 60 | 1024.4 |
| 20260906122313 | 72 | 112 | 3.5 | 7.8 | 0.00 | 0.00 | 0.00 | 60 | 1024.5 |
| 20260906122306 | 71 | 104 | 2.6 | 7.8 | 0.00 | 0.00 | 0.00 | 62 | 1024.5 |
| 20260906121307 | 72 | 175 | 3.5 | 7.8 | 0.00 | 0.00 | 0.00 | 59 | 1024.6 |
| 20260906120803 | 73 | 119 | 2.6 | 7.0 | 0.00 | 0.00 | 0.00 | 59 | 1024.7 |
| 20260906120305 | 73 | 128 | 3.5 | 9.6 | 0.00 | 0.00 | 0.00 | 60 | 1024.7 |
| 20260906115803 | 73 | 142 | 4.3 | 9.6 | 0.00 | 0.00 | 0.00 | 60 | 1024.9 |
| 20260906115308 | 72 | 141 | 4.3 | 10.4 | 0.00 | 0.00 | 0.00 | 60 | 1024.9 |
| 20260906115251 | 72 | 109 | 3.5 | 10.4 | 0.00 | 0.00 | 0.00 | 60 | 1024.9 |
| 20260906114311 | 73 | 67 | 3.5 | 10.4 | 0.00 | 0.00 | 0.00 | 60 | 1024.9 |
| 20260906113804 | 72 | 116 | 3.5 | 10.4 | 0.00 | 0.00 | 0.00 | 63 | 1025.0 |
| 20260906113307 | 72 | 154 | 3.5 | 8.7 | 0.00 | 0.00 | 0.00 | 59 | 1025.0 |
| 20260906112804 | 72 | 147 | 3.5 | 8.7 | 0.00 | 0.00 | 0.00 | 62 | 1025.1 |
| 20260906112307 | 72 | 153 | 3.5 | 8.7 | 0.00 | 0.00 | 0.00 | 63 | 1025.1 |
| 20260906111808 | 72 | 162 | 3.5 | 7.8 | 0.00 | 0.00 | 0.00 | 61 | 1025.3 |
| 20260906111307 | 71 | 115 | 4.3 | 7.8 | 0.00 | 0.00 | 0.00 | 62 | 1025.3 |
| 20260906110807 | 72 | 178 | 4.3 | 10.4 | 0.00 | 0.00 | 0.00 | 59 | 1025.3 |
| 20260906110316 | 72 | 183 | 4.3 | 10.4 | 0.00 | 0.00 | 0.00 | 60 | 1025.3 |
| 20260906105803 | 71 | 171 | 3.5 | 8.7 | 0.00 | 0.00 | 0.00 | 65 | 1025.4 |
| 20260906105744 | 71 | 119 | 2.6 | 8.7 | 0.00 | 0.00 | 0.00 | 62 | 1025.4 |
| 20260906104804 | 70 | 157 | 3.5 | 7.8 | 0.00 | 0.00 | 0.00 | 65 | 1025.5 |
| 20260906104307 | 69 | 105 | 3.5 | 8.7 | 0.00 | 0.00 | 0.00 | 67 | 1025.6 |
| 20260906103804 | 70 | 103 | 2.6 | 8.7 | 0.00 | 0.00 | 0.00 | 65 | 1025.6 |
| 20260906103749 | 70 | 178 | 2.6 | 7.8 | 0.00 | 0.00 | 0.00 | 67 | 1025.8 |
| 20260906102808 | 70 | 133 | 3.5 | 7.0 | 0.00 | 0.00 | 0.00 | 65 | 1025.9 |
| 20260906102306 | 70 | 110 | 3.5 | 7.8 | 0.00 | 0.00 | 0.00 | 66 | 1026.0 |
| 20260906101806 | 70 | 90 | 3.5 | 7.8 | 0.00 | 0.00 | 0.00 | 66 | 1026.0 |
| 20260906101309 | 71 | 112 | 3.5 | 7.8 | 0.00 | 0.00 | 0.00 | 69 | 1026.1 |
| 20260906100807 | 69 | 91 | 3.5 | 7.8 | 0.00 | 0.00 | 0.00 | 67 | 1026.2 |
| 20260906100305 | 69 | 158 | 3.5 | 7.8 | 0.00 | 0.00 | 0.00 | 69 | 1026.3 |
| 20260906095809 | 68 | 75 | 2.6 | 7.0 | 0.00 | 0.00 | 0.00 | 70 | 1026.5 |
| 20260906095740 | 68 | 116 | 2.6 | 6.1 | 0.00 | 0.00 | 0.00 | 71 | 1026.4 |
| 20260906094804 | 68 | 172 | 3.5 | 8.7 | 0.00 | 0.00 | 0.00 | 71 | 1026.4 |
| 20260906094304 | 68 | 114 | 3.5 | 9.6 | 0.00 | 0.00 | 0.00 | 70 | 1026.4 |
| 20260906094250 | 68 | 161 | 4.3 | 10.4 | 0.00 | 0.00 | 0.00 | 70 | 1026.4 |
| 20260906093305 | 68 | 100 | 3.5 | 10.4 | 0.00 | 0.00 | 0.00 | 72 | 1026.5 |
| 20260906092802 | 68 | 191 | 2.6 | 9.6 | 0.00 | 0.00 | 0.00 | 70 | 1026.5 |
| 20260906092306 | 68 | 98 | 2.6 | 8.7 | 0.00 | 0.00 | 0.00 | 71 | 1026.6 |
| 20260906091804 | 68 | 140 | 3.5 | 8.7 | 0.00 | 0.00 | 0.00 | 72 | 1026.6 |
| 20260906091305 | 68 | 171 | 3.5 | 7.8 | 0.00 | 0.00 | 0.00 | 71 | 1026.6 |
| 20260906090803 | 68 | 121 | 3.5 | 7.8 | 0.00 | 0.00 | 0.00 | 74 | 1026.8 |
| 20260906090308 | 68 | 124 | 2.6 | 7.8 | 0.00 | 0.00 | 0.00 | 73 | 1026.8 |
| 20260906085804 | 68 | 110 | 1.7 | 6.1 | 0.00 | 0.00 | 0.00 | 73 | 1026.9 |
| 20260906085307 | 67 | 150 | 1.7 | 6.1 | 0.00 | 0.00 | 0.00 | 74 | 1026.8 |
| 20260906085253 | 67 | 165 | 1.7 | 6.1 | 0.00 | 0.00 | 0.00 | 75 | 1026.9 |
| 20260906084303 | 67 | 136 | 1.7 | 6.1 | 0.00 | 0.00 | 0.00 | 75 | 1026.9 |
| 20260906083806 | 66 | 124 | 1.7 | 7.0 | 0.00 | 0.00 | 0.00 | 76 | 1026.9 |
| 20260906083725 | 65 | 158 | 2.6 | 6.1 | 0.00 | 0.00 | 0.00 | 77 | 1026.9 |
| 20260906083504 | 66 | 152 | 2.6 | 7.0 | 0.00 | 0.00 | 0.00 | 76 | 1026.9 |
| 20260906082306 | 65 | 164 | 2.6 | 6.1 | 0.00 | 0.00 | 0.00 | 77 | 1026.9 |
| 20260906081805 | 65 | 119 | 2.6 | 6.1 | 0.00 | 0.00 | 0.00 | 78 | 1026.8 |
| 20260906081306 | 64 | 157 | 2.6 | 6.1 | 0.00 | 0.00 | 0.00 | 79 | 1026.7 |
| 20260906080803 | 64 | 139 | 2.6 | 8.7 | 0.00 | 0.00 | 0.00 | 79 | 1026.8 |
| 20260906080306 | 64 | 164 | 2.6 | 8.7 | 0.00 | 0.00 | 0.00 | 79 | 1026.7 |
| 20260906075804 | 64 | 129 | 1.7 | 5.2 | 0.00 | 0.00 | 0.00 | 82 | 1026.7 |
| 20260906075306 | 63 | 140 | 2.6 | 7.0 | 0.00 | 0.00 | 0.00 | 83 | 1026.8 |
| 20260906075247 | 62 | 146 | 2.6 | 7.8 | 0.00 | 0.00 | 0.00 | 82 | 1027.0 |
| 20260906074302 | 62 | 113 | 2.6 | 7.8 | 0.00 | 0.00 | 0.00 | 84 | 1027.1 |
| 20260906073803 | 62 | 171 | 2.6 | 5.2 | 0.00 | 0.00 | 0.00 | 86 | 1027.0 |
| 20260906073302 | 62 | 155 | 1.7 | 4.3 | 0.00 | 0.00 | 0.00 | 88 | 1026.9 |
| 20260906072806 | 61 | 139 | 1.7 | 5.2 | 0.00 | 0.00 | 0.00 | 89 | 1026.9 |
| 20260906072306 | 60 | 131 | 1.7 | 5.2 | 0.00 | 0.00 | 0.00 | 91 | 1027.0 |
| 20260906071802 | 60 | 143 | 1.7 | 5.2 | 0.00 | 0.00 | 0.00 | 92 | 1027.0 |
| 20260906071743 | 60 | 146 | 1.7 | 5.2 | 0.00 | 0.00 | 0.00 | 93 | 1026.9 |
| 20260906071256 | 59 | 156 | 0.9 | 3.5 | 0.00 | 0.00 | 0.00 | 94 | 1026.9 |
| 20260906070739 | 58 | 148 | 0.9 | 1.7 | 0.00 | 0.00 | 0.00 | 95 | 1027.0 |
| 20260906065802 | 58 | 152 | 0.0 | 1.7 | 0.00 | 0.00 | 0.00 | 96 | 1027.1 |
| 20260906065305 | 57 | 152 | 0.9 | 3.5 | 0.00 | 0.00 | 0.00 | 96 | 1027.0 |
| 20260906064804 | 56 | 154 | 0.0 | 3.5 | 0.00 | 0.00 | 0.00 | 96 | 1027.1 |
| 20260906064304 | 56 | 158 | 0.0 | 2.6 | 0.00 | 0.00 | 0.00 | 96 | 1027.0 |
| 20260906064255 | 56 | 158 | 1.7 | 3.5 | 0.00 | 0.00 | 0.00 | 96 | 1027.0 |
| 20260906063743 | 56 | 156 | 0.9 | 3.5 | 0.00 | 0.00 | 0.00 | 96 | 1027.0 |
| 20260906062804 | 56 | 166 | 0.9 | 3.5 | 0.00 | 0.00 | 0.00 | 96 | 1026.9 |
| 20260906062305 | 56 | 143 | 0.9 | 3.5 | 0.00 | 0.00 | 0.00 | 96 | 1026.9 |
| 20260906061804 | 56 | 164 | 0.9 | 3.5 | 0.00 | 0.00 | 0.00 | 96 | 1026.8 |
| 20260906061306 | 56 | 130 | 0.9 | 3.5 | 0.00 | 0.00 | 0.00 | 97 | 1026.8 |
| 20260906060804 | 56 | 129 | 0.9 | 3.5 | 0.00 | 0.00 | 0.00 | 97 | 1026.7 |
| 20260906060304 | 55 | 163 | 0.9 | 3.5 | 0.00 | 0.00 | 0.00 | 97 | 1026.8 |
| 20260906055804 | 55 | 171 | 1.7 | 4.3 | 0.00 | 0.00 | 0.00 | 97 | 1026.7 |
| 20260906055306 | 55 | 162 | 1.7 | 4.3 | 0.00 | 0.00 | 0.00 | 97 | 1026.7 |
| 20260906054802 | 55 | 165 | 0.9 | 2.6 | 0.00 | 0.00 | 0.00 | 97 | 1026.8 |
| 20260906054306 | 54 | 158 | 0.0 | 1.7 | 0.00 | 0.00 | 0.00 | 97 | 1026.8 |
| 20260906053805 | 53 | 158 | 0.0 | 0.9 | 0.00 | 0.00 | 0.00 | 97 | 1026.7 |
| 20260906053304 | 53 | 158 | 0.0 | 1.7 | 0.00 | 0.00 | 0.00 | 97 | 1026.6 |
| 20260906052803 | 53 | 158 | 0.9 | 2.6 | 0.00 | 0.00 | 0.00 | 96 | 1026.8 |
| 20260906052306 | 53 | 158 | 0.9 | 3.5 | 0.00 | 0.00 | 0.00 | 96 | 1026.8 |
| 20260906051803 | 53 | 167 | 1.7 | 3.5 | 0.00 | 0.00 | 0.00 | 96 | 1026.8 |
| 20260906051306 | 53 | 164 | 0.9 | 2.6 | 0.00 | 0.00 | 0.00 | 96 | 1026.8 |
| 20260906051255 | 53 | 154 | 0.9 | 2.6 | 0.00 | 0.00 | 0.00 | 96 | 1026.8 |
| 20260906050317 | 52 | 154 | 0.9 | 4.3 | 0.00 | 0.00 | 0.00 | 96 | 1026.7 |
| 20260906045806 | 52 | 175 | 1.7 | 4.3 | 0.00 | 0.00 | 0.00 | 96 | 1026.6 |
| 20260906045306 | 52 | 166 | 0.9 | 3.5 | 0.00 | 0.00 | 0.00 | 96 | 1026.6 |
| 20260906045239 | 52 | 170 | 0.0 | 1.7 | 0.00 | 0.00 | 0.00 | 96 | 1026.6 |
| 20260906045007 | 52 | 158 | 0.9 | 3.5 | 0.00 | 0.00 | 0.00 | 96 | 1026.6 |
| 20260906044243 | 52 | 170 | 0.0 | 0.9 | 0.00 | 0.00 | 0.00 | 96 | 1026.6 |
| 20260906043306 | 52 | 170 | 0.0 | 1.7 | 0.00 | 0.00 | 0.00 | 96 | 1026.8 |
| 20260906042804 | 52 | 170 | 0.0 | 1.7 | 0.00 | 0.00 | 0.00 | 96 | 1026.8 |
| 20260906042302 | 52 | 170 | 0.9 | 2.6 | 0.00 | 0.00 | 0.00 | 96 | 1026.8 |
| 20260906041806 | 52 | 175 | 0.0 | 2.6 | 0.00 | 0.00 | 0.00 | 96 | 1026.8 |
| 20260906041304 | 53 | 163 | 0.0 | 0.9 | 0.00 | 0.00 | 0.00 | 96 | 1026.8 |
| 20260906040802 | 53 | 163 | 0.0 | 0.9 | 0.00 | 0.00 | 0.00 | 96 | 1026.9 |
| 20260906040302 | 53 | 164 | 0.9 | 1.7 | 0.00 | 0.00 | 0.00 | 96 | 1026.9 |
| 20260906035802 | 53 | 164 | 0.9 | 2.6 | 0.00 | 0.00 | 0.00 | 96 | 1027.0 |
| 20260906035306 | 53 | 165 | 0.9 | 2.6 | 0.00 | 0.00 | 0.00 | 96 | 1027.0 |
| 20260906034802 | 53 | 165 | 0.9 | 2.6 | 0.00 | 0.00 | 0.00 | 96 | 1026.9 |
| 20260906034750 | 53 | 165 | 0.9 | 2.6 | 0.00 | 0.00 | 0.00 | 96 | 1027.1 |
| 20260906033806 | 53 | 165 | 0.9 | 3.5 | 0.00 | 0.00 | 0.00 | 95 | 1027.1 |
| 20260906033747 | 53 | 164 | 0.9 | 3.5 | 0.00 | 0.00 | 0.00 | 96 | 1027.1 |
| 20260906032805 | 53 | 170 | 0.9 | 2.6 | 0.00 | 0.00 | 0.00 | 96 | 1027.2 |
| 20260906032306 | 53 | 170 | 1.7 | 2.6 | 0.00 | 0.00 | 0.00 | 96 | 1027.3 |
| 20260906031805 | 53 | 175 | 1.7 | 2.6 | 0.00 | 0.00 | 0.00 | 96 | 1027.2 |
| 20260906031302 | 53 | 175 | 0.9 | 2.6 | 0.00 | 0.00 | 0.00 | 95 | 1027.1 |
| 20260906030803 | 53 | 175 | 0.9 | 2.6 | 0.00 | 0.00 | 0.00 | 95 | 1027.2 |
| 20260906030304 | 53 | 175 | 0.0 | 0.9 | 0.00 | 0.00 | 0.00 | 95 | 1026.9 |
| 20260906030249 | 53 | 175 | 0.0 | 0.9 | 0.00 | 0.00 | 0.00 | 95 | 1026.9 |
| 20260906025306 | 53 | 175 | 0.0 | 0.9 | 0.00 | 0.00 | 0.00 | 95 | 1027.1 |
| 20260906024804 | 53 | 175 | 0.0 | 0.9 | 0.00 | 0.00 | 0.00 | 95 | 1027.2 |
| 20260906024305 | 53 | 175 | 0.0 | 0.9 | 0.00 | 0.00 | 0.00 | 95 | 1027.2 |
| 20260906024243 | 54 | 175 | 0.0 | 0.9 | 0.00 | 0.00 | 0.00 | 95 | 1027.3 |
| 20260906023304 | 54 | 175 | 0.0 | 0.9 | 0.00 | 0.00 | 0.00 | 96 | 1027.4 |
| 20260906022805 | 53 | 176 | 0.0 | 0.9 | 0.00 | 0.00 | 0.00 | 95 | 1027.5 |
| 20260906022306 | 53 | 175 | 0.0 | 0.9 | 0.00 | 0.00 | 0.00 | 95 | 1027.4 |
| 20260906021802 | 54 | 175 | 0.9 | 1.7 | 0.00 | 0.00 | 0.00 | 95 | 1027.6 |
| 20260906021302 | 54 | 175 | 0.9 | 2.6 | 0.00 | 0.00 | 0.00 | 95 | 1027.6 |
| 20260906020801 | 54 | 187 | 0.9 | 2.6 | 0.00 | 0.00 | 0.00 | 95 | 1027.6 |
| 20260906020302 | 54 | 179 | 0.9 | 3.5 | 0.00 | 0.00 | 0.00 | 95 | 1027.9 |
| 20260906015802 | 54 | 167 | 0.9 | 3.5 | 0.00 | 0.00 | 0.00 | 95 | 1027.8 |
| 20260906015305 | 54 | 187 | 0.9 | 2.6 | 0.00 | 0.00 | 0.00 | 95 | 1027.7 |
| 20260906014802 | 54 | 175 | 0.9 | 2.6 | 0.00 | 0.00 | 0.00 | 95 | 1027.7 |
| 20260906014303 | 54 | 175 | 0.0 | 1.7 | 0.00 | 0.00 | 0.00 | 95 | 1027.5 |
| 20260906013805 | 54 | 175 | 0.9 | 1.7 | 0.00 | 0.00 | 0.00 | 95 | 1027.5 |
| 20260906013744 | 54 | 174 | 0.0 | 1.7 | 0.00 | 0.00 | 0.00 | 95 | 1027.3 |
| 20260906013249 | 54 | 175 | 0.0 | 1.7 | 0.00 | 0.00 | 0.00 | 95 | 1027.3 |
| 20260906012306 | 54 | 175 | 0.0 | 1.7 | 0.00 | 0.00 | 0.00 | 95 | 1027.3 |
| 20260906011802 | 54 | 175 | 0.9 | 1.7 | 0.00 | 0.00 | 0.00 | 95 | 1027.2 |
| 20260906011305 | 54 | 175 | 0.9 | 1.7 | 0.00 | 0.00 | 0.00 | 94 | 1027.3 |
| 20260906010802 | 54 | 175 | 0.0 | 0.9 | 0.00 | 0.00 | 0.00 | 95 | 1027.3 |
| 20260906010721 | 54 | 175 | 0.0 | 0.9 | 0.00 | 0.00 | 0.00 | 95 | 1027.3 |
| 20260906005803 | 54 | 175 | 0.0 | 0.9 | 0.00 | 0.00 | 0.00 | 94 | 1027.4 |
| 20260906005306 | 54 | 175 | 0.0 | 2.6 | 0.00 | 0.00 | 0.00 | 94 | 1027.5 |
| 20260906004803 | 54 | 175 | 0.0 | 2.6 | 0.00 | 0.00 | 0.00 | 94 | 1027.5 |
| 20260906004305 | 54 | 170 | 0.0 | 0.9 | 0.00 | 0.00 | 0.00 | 94 | 1027.5 |
| 20260906003803 | 54 | 170 | 0.9 | 2.6 | 0.00 | 0.00 | 0.00 | 94 | 1027.4 |
| 20260906003723 | 54 | 170 | 0.9 | 2.6 | 0.00 | 0.00 | 0.00 | 94 | 1027.4 |
| 20260906002803 | 54 | 160 | 0.9 | 2.6 | 0.00 | 0.00 | 0.00 | 94 | 1027.5 |
| 20260906002306 | 54 | 159 | 0.9 | 3.5 | 0.00 | 0.00 | 0.00 | 94 | 1027.4 |
| 20260906001805 | 54 | 171 | 0.0 | 3.5 | 0.00 | 0.00 | 0.00 | 94 | 1027.4 |
| 20260906001745 | 54 | 203 | 0.9 | 1.7 | 0.00 | 0.00 | 0.00 | 94 | 1027.4 |
| 20260906000803 | 54 | 203 | 0.9 | 1.7 | 0.00 | 0.00 | 0.00 | 94 | 1027.4 |
| 20260906000303 | 55 | 203 | 0.0 | 0.9 | 0.00 | 0.00 | 0.00 | 94 | 1027.3 |
| 20260905235803 | 55 | 203 | 0.0 | 1.7 | 0.00 | 0.00 | 0.00 | 94 | 1027.3 |
| 20260905235306 | 54 | 203 | 0.9 | 1.7 | 0.00 | 0.00 | 0.00 | 93 | 1027.4 |
| 20260905234804 | 54 | 203 | 0.0 | 1.7 | 0.00 | 0.00 | 0.00 | 93 | 1027.3 |
| 20260905234306 | 54 | 203 | 0.0 | 0.9 | 0.00 | 0.00 | 0.00 | 93 | 1027.3 |
| 20260905234241 | 54 | 203 | 0.0 | 0.9 | 0.00 | 0.00 | 0.00 | 93 | 1027.2 |
| 20260905233303 | 55 | 202 | 0.0 | 0.9 | 0.00 | 0.00 | 0.00 | 93 | 1027.2 |
| 20260905232803 | 55 | 203 | 0.0 | 0.9 | 0.00 | 0.00 | 0.00 | 93 | 1027.3 |
| 20260905232306 | 55 | 203 | 0.9 | 1.7 | 0.00 | 0.00 | 0.00 | 93 | 1027.2 |
| 20260905231804 | 55 | 202 | 0.9 | 1.7 | 0.00 | 0.00 | 0.00 | 93 | 1027.2 |
| 20260905231306 | 55 | 203 | 0.9 | 1.7 | 0.00 | 0.00 | 0.00 | 93 | 1027.2 |
| 20260905230804 | 55 | 203 | 0.9 | 1.7 | 0.00 | 0.00 | 0.00 | 93 | 1027.2 |
| 20260905230317 | 55 | 203 | 0.0 | 1.7 | 0.00 | 0.00 | 0.00 | 93 | 1027.2 |
| 20260905225802 | 55 | 203 | 0.0 | 0.9 | 0.00 | 0.00 | 0.00 | 92 | 1027.2 |
| 20260905225305 | 55 | 203 | 0.9 | 0.9 | 0.00 | 0.00 | 0.00 | 92 | 1027.2 |
| 20260905224806 | 55 | 203 | 0.0 | 0.9 | 0.00 | 0.00 | 0.00 | 92 | 1027.1 |
| 20260905224303 | 55 | 203 | 0.0 | 0.0 | 0.00 | 0.00 | 0.00 | 92 | 1027.2 |
| 20260905223803 | 55 | 203 | 0.0 | 0.0 | 0.00 | 0.00 | 0.00 | 92 | 1027.2 |
| 20260905223302 | 55 | 202 | 0.0 | 0.9 | 0.00 | 0.00 | 0.00 | 92 | 1027.2 |
| 20260905223251 | 55 | 203 | 0.0 | 0.9 | 0.00 | 0.00 | 0.00 | 92 | 1027.3 |
| 20260905222306 | 55 | 203 | 0.9 | 0.9 | 0.00 | 0.00 | 0.00 | 91 | 1027.1 |
| 20260905221804 | 55 | 203 | 0.0 | 0.9 | 0.00 | 0.00 | 0.00 | 91 | 1027.1 |
| 20260905221302 | 55 | 202 | 0.0 | 0.9 | 0.00 | 0.00 | 0.00 | 91 | 1027.1 |
| 20260905220803 | 56 | 203 | 0.0 | 1.7 | 0.00 | 0.00 | 0.00 | 91 | 1027.0 |
| 20260905220303 | 56 | 203 | 0.9 | 1.7 | 0.00 | 0.00 | 0.00 | 91 | 1027.1 |
| 20260905215802 | 56 | 203 | 0.9 | 1.7 | 0.00 | 0.00 | 0.00 | 91 | 1027.1 |
| 20260905215305 | 56 | 204 | 0.9 | 1.7 | 0.00 | 0.00 | 0.00 | 91 | 1027.0 |
| 20260905214802 | 56 | 199 | 0.0 | 1.7 | 0.00 | 0.00 | 0.00 | 91 | 1027.1 |
| 20260905214306 | 56 | 199 | 0.9 | 0.9 | 0.00 | 0.00 | 0.00 | 90 | 1027.0 |
| 20260905213804 | 56 | 199 | 0.0 | 0.9 | 0.00 | 0.00 | 0.00 | 90 | 1026.9 |
| 20260905213738 | 56 | 199 | 0.0 | 0.9 | 0.00 | 0.00 | 0.00 | 90 | 1027.0 |
| 20260905212804 | 56 | 199 | 0.9 | 1.7 | 0.00 | 0.00 | 0.00 | 90 | 1027.0 |
| 20260905212306 | 57 | 199 | 1.7 | 2.6 | 0.00 | 0.00 | 0.00 | 90 | 1026.8 |
| 20260905211803 | 56 | 188 | 0.9 | 2.6 | 0.00 | 0.00 | 0.00 | 90 | 1026.8 |
| 20260905211305 | 56 | 325 | 0.0 | 1.7 | 0.00 | 0.00 | 0.00 | 90 | 1026.8 |
| 20260905210802 | 56 | 325 | 0.0 | 1.7 | 0.00 | 0.00 | 0.00 | 89 | 1026.8 |
| 20260905210728 | 56 | 325 | 0.0 | 1.7 | 0.00 | 0.00 | 0.00 | 89 | 1026.7 |
| 20260905205801 | 56 | 325 | 0.0 | 0.9 | 0.00 | 0.00 | 0.00 | 88 | 1026.7 |
| 20260905205301 | 57 | 325 | 0.0 | 0.9 | 0.00 | 0.00 | 0.00 | 88 | 1026.8 |
| 20260905204757 | 57 | 325 | 0.0 | 0.9 | 0.00 | 0.00 | 0.00 | 88 | 1026.7 |
| 20260905204255 | 57 | 325 | 0.9 | 1.7 | 0.00 | 0.00 | 0.00 | 88 | 1026.7 |
| 20260905204233 | 57 | 325 | 0.9 | 2.6 | 0.00 | 0.00 | 0.00 | 88 | 1026.7 |
| 20260905203256 | 57 | 325 | 0.9 | 2.6 | 0.00 | 0.00 | 0.00 | 87 | 1026.7 |
| 20260905203157 | 58 | 258 | 0.9 | 1.7 | 0.00 | 0.00 | 0.00 | 87 | 1026.7 |
| 20260905202953 | 58 | 258 | 0.9 | 1.7 | 0.00 | 0.00 | 0.00 | 87 | 1026.6 |
| 20260905202236 | 58 | 258 | 0.0 | 1.7 | 0.00 | 0.00 | 0.00 | 86 | 1026.7 |
| 20260905201252 | 58 | 258 | 0.0 | 0.9 | 0.00 | 0.00 | 0.00 | 86 | 1026.6 |
| 20260905200752 | 58 | 258 | 0.0 | 0.9 | 0.00 | 0.00 | 0.00 | 85 | 1026.5 |
| 20260905200253 | 58 | 258 | 0.0 | 0.9 | 0.00 | 0.00 | 0.00 | 84 | 1026.5 |
| 20260905195751 | 59 | 258 | 0.0 | 0.9 | 0.00 | 0.00 | 0.00 | 84 | 1026.6 |
| 20260905195248 | 59 | 258 | 0.0 | 0.9 | 0.00 | 0.00 | 0.00 | 84 | 1026.5 |
| 20260905194749 | 59 | 258 | 0.0 | 0.9 | 0.00 | 0.00 | 0.00 | 83 | 1026.5 |
| 20260905194247 | 59 | 258 | 0.0 | 0.9 | 0.00 | 0.00 | 0.00 | 82 | 1026.5 |
| 20260905193749 | 60 | 258 | 0.0 | 0.9 | 0.00 | 0.00 | 0.00 | 82 | 1026.5 |
| 20260905193249 | 60 | 258 | 0.0 | 0.9 | 0.00 | 0.00 | 0.00 | 82 | 1026.5 |
| 20260905192748 | 60 | 258 | 0.0 | 0.9 | 0.00 | 0.00 | 0.00 | 81 | 1026.3 |
| 20260905192244 | 60 | 258 | 0.0 | 0.9 | 0.00 | 0.00 | 0.00 | 80 | 1026.3 |
| 20260905191744 | 60 | 258 | 0.0 | 0.9 | 0.00 | 0.00 | 0.00 | 79 | 1026.2 |